Regional Weather Roundup
Issued by NWS

Home | Current Version | Previous Version | Graphics & Text | Print | Product List | Glossary On
Versions: 1 2 3 4 5 6 7 8 9 10 11 12 13 14 15 16 17 18 19 20 21 22 23 24 25 26 27 28 29 30 31 32 33 34 35 36 37 38 39 40 41 42 43 44 45 46 47 48 49 50
000
ASUS43 KFSD 041602
RWRSD

WEATHER ROUNDUP FOR SOUTH DAKOTA
NATIONAL WEATHER SERVICE SIOUX FALLS SD
1000 AM CST WED MAR 04 2015

NOTE: "FAIR" INDICATES FEW OR NO CLOUDS BELOW 12,000 FEET WITH NO
SIGNIFICANT WEATHER AND/OR OBSTRUCTIONS TO VISIBILITY.


SDZ001>005-009-010-012>017-041700-
NORTHWEST AND NORTH CENTRAL SOUTH DAKOTA

CITY           SKY/WX    TMP DP  RH WIND       PRES   REMARKS
BUFFALO          N/A      3  -5  69 NW18      30.14R WCI -17
FAITH            N/A      5  -8  55 N24G30    30.24R WCI -17
MOBRIDGE       MOSUNNY    5 -11  47 NW25      30.25R WCI -18
$$

SDZ012>016-024>037-041>051-057-063-072>074-041700-
SOUTHWEST AND SOUTH CENTRAL SOUTH DAKOTA

CITY           SKY/WX    TMP DP  RH WIND       PRES   REMARKS
RAPID CTY ARPT SUNNY     12   4  70 N16       30.20R WCI  -5
PIERRE         SUNNY      8  -4  58 NW21G26   30.30R WCI -12
CUSTER         SUNNY      6 -14  39 VRB6      29.99R WCI  -4
PHILIP         SUNNY     11  -1  58 N16       30.29R WCI  -6
PINE RIDGE     SUNNY      5  -3  69 SW6       30.23R WCI  -6
SPEARFISH      FAIR       7   0  72 NW17      30.15R WCI -12
WINNER         FAIR      11  -4  51 NW21      30.29R WCI  -8
$$

SDZ004>011-016>023-039-040-041700-
NORTHEAST SOUTH DAKOTA

CITY           SKY/WX    TMP DP  RH WIND       PRES   REMARKS
ABERDEEN       MIX PCPN   2  -9  60 NW22G31   30.31R WCI -20
WATERTOWN      CLOUDY     4  -5  66 NW17      30.19R WCI -16
$$

SDZ017-020-022-023-036>040-048>070-041700-
SOUTHEAST SOUTH DAKOTA

CITY           SKY/WX    TMP DP  RH WIND       PRES   REMARKS
SIOUX FALLS    NOT AVBL
HURON          SUNNY      6  -6  57 NW26G32   30.30R WCI -16
MITCHELL       SUNNY     10  -2  58 NW25      30.32R WCI -11
YANKTON        SUNNY     16   1  53 NW25      30.30R WCI  -3
$$

ABBREVIATIONS USED IN REMARKS
   TC - TEMPERATURE IN CELSIUS
  WCI - WIND CHILL INDEX
   HX - HEAT INDEX
  VSB - VISIBILITY




USA.gov is the U.S. government's official web portal to all federal, state and local government web resources and services.